owner,sensor,date,latitude,longitude,relative_humidity,qcFlag 
WAVCIS,ioos:station:WAVCIS:CSI06:1,2013-02-01T00:00:00Z,28.8667,-90.4833,41.0,11111222 
WAVCIS,ioos:station:WAVCIS:CSI06:1,2013-02-01T01:00:00Z,28.8667,-90.4833,35.8,11111222 
WAVCIS,ioos:station:WAVCIS:CSI06:1,2013-02-01T02:00:00Z,28.8667,-90.4833,38.0,11111222 
WAVCIS,ioos:station:WAVCIS:CSI06:1,2013-02-01T03:00:00Z,28.8667,-90.4833,39.3,11111222 
WAVCIS,ioos:station:WAVCIS:CSI06:1,2013-02-01T04:00:00Z,28.8667,-90.4833,41.6,11111222 
WAVCIS,ioos:station:WAVCIS:CSI06:1,2013-02-01T05:00:00Z,28.8667,-90.4833,43.8,11111222 
WAVCIS,ioos:station:WAVCIS:CSI06:1,2013-02-01T06:00:00Z,28.8667,-90.4833,44.1,11111222 
WAVCIS,ioos:station:WAVCIS:CSI06:1,2013-02-01T07:00:00Z,28.8667,-90.4833,48.1,11111222 
WAVCIS,ioos:station:WAVCIS:CSI06:1,2013-02-01T08:00:00Z,28.8667,-90.4833,50.6,11111222 
WAVCIS,ioos:station:WAVCIS:CSI06:1,2013-02-01T09:00:00Z,28.8667,-90.4833,52.8,11111222 
WAVCIS,ioos:station:WAVCIS:CSI06:1,2013-02-01T10:00:00Z,28.8667,-90.4833,51.2,11111222 
WAVCIS,ioos:station:WAVCIS:CSI06:1,2013-02-01T11:00:00Z,28.8667,-90.4833,45.5,11111222 
WAVCIS,ioos:station:WAVCIS:CSI06:1,2013-02-01T12:00:00Z,28.8667,-90.4833,41.9,11111222 
WAVCIS,ioos:station:WAVCIS:CSI06:1,2013-02-01T13:00:00Z,28.8667,-90.4833,44.9,11111222 
WAVCIS,ioos:station:WAVCIS:CSI06:1,2013-02-01T14:00:00Z,28.8667,-90.4833,53.9,11111222 
WAVCIS,ioos:station:WAVCIS:CSI06:1,2013-02-01T15:00:00Z,28.8667,-90.4833,50.9,11111222 
WAVCIS,ioos:station:WAVCIS:CSI06:1,2013-02-01T16:00:00Z,28.8667,-90.4833,56.1,11111222 
WAVCIS,ioos:station:WAVCIS:CSI06:1,2013-02-01T17:00:00Z,28.8667,-90.4833,55.4,11111222 
WAVCIS,ioos:station:WAVCIS:CSI06:1,2013-02-01T18:00:00Z,28.8667,-90.4833,58.0,11111222 
WAVCIS,ioos:station:WAVCIS:CSI06:1,2013-02-01T19:00:00Z,28.8667,-90.4833,57.3,11111222 
WAVCIS,ioos:station:WAVCIS:CSI06:1,2013-02-01T20:00:00Z,28.8667,-90.4833,62.8,11111222 
WAVCIS,ioos:station:WAVCIS:CSI06:1,2013-02-01T21:00:00Z,28.8667,-90.4833,68.8,11111222 
WAVCIS,ioos:station:WAVCIS:CSI06:1,2013-02-01T22:00:00Z,28.8667,-90.4833,69.3,11111222 
WAVCIS,ioos:station:WAVCIS:CSI06:1,2013-02-01T23:00:00Z,28.8667,-90.4833,75.0,11111222 
WAVCIS,ioos:station:WAVCIS:CSI06:1,2013-02-02T00:00:00Z,28.8667,-90.4833,87.1,11111222 
WAVCIS,ioos:station:WAVCIS:CSI06:1,2013-02-02T01:00:00Z,28.8667,-90.4833,91.0,11111222 
WAVCIS,ioos:station:WAVCIS:CSI06:1,2013-02-02T02:00:00Z,28.8667,-90.4833,67.1,11111222 
WAVCIS,ioos:station:WAVCIS:CSI06:1,2013-02-02T03:00:00Z,28.8667,-90.4833,69.6,11111222 
WAVCIS,ioos:station:WAVCIS:CSI06:1,2013-02-02T04:00:00Z,28.8667,-90.4833,66.8,11111222 
WAVCIS,ioos:station:WAVCIS:CSI06:1,2013-02-02T05:00:00Z,28.8667,-90.4833,86.6,11111222 
WAVCIS,ioos:station:WAVCIS:CSI06:1,2013-02-02T06:00:00Z,28.8667,-90.4833,99.6,11111222 
WAVCIS,ioos:station:WAVCIS:CSI06:1,2013-02-02T07:00:00Z,28.8667,-90.4833,100.0,11111222 
WAVCIS,ioos:station:WAVCIS:CSI06:1,2013-02-02T08:00:00Z,28.8667,-90.4833,100.0,11111222 
WAVCIS,ioos:station:WAVCIS:CSI06:1,2013-02-02T09:00:00Z,28.8667,-90.4833,100.0,11111222 
WAVCIS,ioos:station:WAVCIS:CSI06:1,2013-02-02T10:00:00Z,28.8667,-90.4833,100.0,11111222 
WAVCIS,ioos:station:WAVCIS:CSI06:1,2013-02-02T11:00:00Z,28.8667,-90.4833,100.0,11111222 
WAVCIS,ioos:station:WAVCIS:CSI06:1,2013-02-02T12:00:00Z,28.8667,-90.4833,100.0,11111222 
WAVCIS,ioos:station:WAVCIS:CSI06:1,2013-02-02T13:00:00Z,28.8667,-90.4833,100.0,11111222 
WAVCIS,ioos:station:WAVCIS:CSI06:1,2013-02-02T14:00:00Z,28.8667,-90.4833,100.0,11111222 
WAVCIS,ioos:station:WAVCIS:CSI06:1,2013-02-02T15:00:00Z,28.8667,-90.4833,100.0,11111222 
WAVCIS,ioos:station:WAVCIS:CSI06:1,2013-02-02T16:00:00Z,28.8667,-90.4833,100.0,11111222 
WAVCIS,ioos:station:WAVCIS:CSI06:1,2013-02-02T17:00:00Z,28.8667,-90.4833,100.0,11111222 
WAVCIS,ioos:station:WAVCIS:CSI06:1,2013-02-02T18:00:00Z,28.8667,-90.4833,100.0,11111222 
WAVCIS,ioos:station:WAVCIS:CSI06:1,2013-02-02T19:00:00Z,28.8667,-90.4833,100.0,11111222 
WAVCIS,ioos:station:WAVCIS:CSI06:1,2013-02-02T20:00:00Z,28.8667,-90.4833,100.0,11111222 
WAVCIS,ioos:station:WAVCIS:CSI06:1,2013-02-02T21:00:00Z,28.8667,-90.4833,100.0,11111222 
WAVCIS,ioos:station:WAVCIS:CSI06:1,2013-02-02T22:00:00Z,28.8667,-90.4833,100.0,11111222 
WAVCIS,ioos:station:WAVCIS:CSI06:1,2013-02-02T23:00:00Z,28.8667,-90.4833,100.0,11111222 
WAVCIS,ioos:station:WAVCIS:CSI06:1,2013-02-03T00:00:00Z,28.8667,-90.4833,100.0,11111222 
WAVCIS,ioos:station:WAVCIS:CSI06:1,2013-02-03T01:00:00Z,28.8667,-90.4833,100.0,11111222 
WAVCIS,ioos:station:WAVCIS:CSI06:1,2013-02-03T02:00:00Z,28.8667,-90.4833,100.0,11111222 
WAVCIS,ioos:station:WAVCIS:CSI06:1,2013-02-03T03:00:00Z,28.8667,-90.4833,100.0,11111222 
WAVCIS,ioos:station:WAVCIS:CSI06:1,2013-02-03T04:00:00Z,28.8667,-90.4833,100.0,11111222 
WAVCIS,ioos:station:WAVCIS:CSI06:1,2013-02-03T05:00:00Z,28.8667,-90.4833,100.0,11111222 
WAVCIS,ioos:station:WAVCIS:CSI06:1,2013-02-03T06:00:00Z,28.8667,-90.4833,100.0,11111222 
WAVCIS,ioos:station:WAVCIS:CSI06:1,2013-02-03T07:00:00Z,28.8667,-90.4833,100.0,11111222 
WAVCIS,ioos:station:WAVCIS:CSI06:1,2013-02-03T08:00:00Z,28.8667,-90.4833,100.0,11111222 
WAVCIS,ioos:station:WAVCIS:CSI06:1,2013-02-03T09:00:00Z,28.8667,-90.4833,100.0,11111222 
WAVCIS,ioos:station:WAVCIS:CSI06:1,2013-02-03T10:00:00Z,28.8667,-90.4833,100.0,11111222 
WAVCIS,ioos:station:WAVCIS:CSI06:1,2013-02-03T11:00:00Z,28.8667,-90.4833,100.0,11111222 
WAVCIS,ioos:station:WAVCIS:CSI06:1,2013-02-03T12:00:00Z,28.8667,-90.4833,100.0,11111222 
WAVCIS,ioos:station:WAVCIS:CSI06:1,2013-02-03T13:00:00Z,28.8667,-90.4833,100.0,11111222 
WAVCIS,ioos:station:WAVCIS:CSI06:1,2013-02-03T14:00:00Z,28.8667,-90.4833,100.0,11111222 
WAVCIS,ioos:station:WAVCIS:CSI06:1,2013-02-03T15:00:00Z,28.8667,-90.4833,100.0,11111222 
WAVCIS,ioos:station:WAVCIS:CSI06:1,2013-02-03T16:00:00Z,28.8667,-90.4833,100.0,11111222 
WAVCIS,ioos:station:WAVCIS:CSI06:1,2013-02-03T17:00:00Z,28.8667,-90.4833,94.0,11111222 
WAVCIS,ioos:station:WAVCIS:CSI06:1,2013-02-03T18:00:00Z,28.8667,-90.4833,77.8,11111222 
WAVCIS,ioos:station:WAVCIS:CSI06:1,2013-02-03T19:00:00Z,28.8667,-90.4833,61.8,11111222 
WAVCIS,ioos:station:WAVCIS:CSI06:1,2013-02-03T20:00:00Z,28.8667,-90.4833,64.4,11111222 
WAVCIS,ioos:station:WAVCIS:CSI06:1,2013-02-03T21:00:00Z,28.8667,-90.4833,64.7,11111222 
WAVCIS,ioos:station:WAVCIS:CSI06:1,2013-02-03T22:00:00Z,28.8667,-90.4833,67.4,11111222 
WAVCIS,ioos:station:WAVCIS:CSI06:1,2013-02-03T23:00:00Z,28.8667,-90.4833,72.2,11111222 
WAVCIS,ioos:station:WAVCIS:CSI06:1,2013-02-04T00:00:00Z,28.8667,-90.4833,78.9,11111222 
WAVCIS,ioos:station:WAVCIS:CSI06:1,2013-02-04T01:00:00Z,28.8667,-90.4833,84.5,11111222 
WAVCIS,ioos:station:WAVCIS:CSI06:1,2013-02-04T02:00:00Z,28.8667,-90.4833,83.3,11111222 
WAVCIS,ioos:station:WAVCIS:CSI06:1,2013-02-04T03:00:00Z,28.8667,-90.4833,87.8,11111222 
WAVCIS,ioos:station:WAVCIS:CSI06:1,2013-02-04T04:00:00Z,28.8667,-90.4833,86.8,11111222 
WAVCIS,ioos:station:WAVCIS:CSI06:1,2013-02-04T05:00:00Z,28.8667,-90.4833,69.1,11111222 
WAVCIS,ioos:station:WAVCIS:CSI06:1,2013-02-04T06:00:00Z,28.8667,-90.4833,62.0,11111222 
WAVCIS,ioos:station:WAVCIS:CSI06:1,2013-02-04T07:00:00Z,28.8667,-90.4833,59.5,11111222 
WAVCIS,ioos:station:WAVCIS:CSI06:1,2013-02-04T08:00:00Z,28.8667,-90.4833,57.3,11111222 
WAVCIS,ioos:station:WAVCIS:CSI06:1,2013-02-04T09:00:00Z,28.8667,-90.4833,53.9,11111222 
WAVCIS,ioos:station:WAVCIS:CSI06:1,2013-02-04T10:00:00Z,28.8667,-90.4833,45.8,11111222 
WAVCIS,ioos:station:WAVCIS:CSI06:1,2013-02-04T11:00:00Z,28.8667,-90.4833,45.2,11111222 
WAVCIS,ioos:station:WAVCIS:CSI06:1,2013-02-04T12:00:00Z,28.8667,-90.4833,45.0,11111222 
WAVCIS,ioos:station:WAVCIS:CSI06:1,2013-02-04T13:00:00Z,28.8667,-90.4833,44.7,11111222 
WAVCIS,ioos:station:WAVCIS:CSI06:1,2013-02-04T14:00:00Z,28.8667,-90.4833,57.1,11111222 
WAVCIS,ioos:station:WAVCIS:CSI06:1,2013-02-04T15:00:00Z,28.8667,-90.4833,73.7,11111222 
WAVCIS,ioos:station:WAVCIS:CSI06:1,2013-02-04T16:00:00Z,28.8667,-90.4833,100.0,11111222 
WAVCIS,ioos:station:WAVCIS:CSI06:1,2013-02-04T17:00:00Z,28.8667,-90.4833,100.0,11111222 
WAVCIS,ioos:station:WAVCIS:CSI06:1,2013-02-04T18:00:00Z,28.8667,-90.4833,100.0,11111222 
WAVCIS,ioos:station:WAVCIS:CSI06:1,2013-02-04T19:00:00Z,28.8667,-90.4833,100.0,11111222 
WAVCIS,ioos:station:WAVCIS:CSI06:1,2013-02-04T20:00:00Z,28.8667,-90.4833,100.0,11111222 
WAVCIS,ioos:station:WAVCIS:CSI06:1,2013-02-04T21:00:00Z,28.8667,-90.4833,100.0,11111222 
WAVCIS,ioos:station:WAVCIS:CSI06:1,2013-02-04T22:00:00Z,28.8667,-90.4833,100.0,11111222 
WAVCIS,ioos:station:WAVCIS:CSI06:1,2013-02-04T23:00:00Z,28.8667,-90.4833,100.0,11111222 
WAVCIS,ioos:station:WAVCIS:CSI06:1,2013-02-05T00:00:00Z,28.8667,-90.4833,100.0,11111222 
WAVCIS,ioos:station:WAVCIS:CSI06:1,2013-02-05T01:00:00Z,28.8667,-90.4833,100.0,11111222 
WAVCIS,ioos:station:WAVCIS:CSI06:1,2013-02-05T02:00:00Z,28.8667,-90.4833,100.0,11111222 
WAVCIS,ioos:station:WAVCIS:CSI06:1,2013-02-05T03:00:00Z,28.8667,-90.4833,100.0,11111222 
WAVCIS,ioos:station:WAVCIS:CSI06:1,2013-02-05T04:00:00Z,28.8667,-90.4833,100.0,11111222 
WAVCIS,ioos:station:WAVCIS:CSI06:1,2013-02-05T05:00:00Z,28.8667,-90.4833,100.0,11111222 
WAVCIS,ioos:station:WAVCIS:CSI06:1,2013-02-05T06:00:00Z,28.8667,-90.4833,100.0,11111222 
WAVCIS,ioos:station:WAVCIS:CSI06:1,2013-02-05T07:00:00Z,28.8667,-90.4833,100.0,11111222 
WAVCIS,ioos:station:WAVCIS:CSI06:1,2013-02-05T08:00:00Z,28.8667,-90.4833,100.0,11111222 
WAVCIS,ioos:station:WAVCIS:CSI06:1,2013-02-05T09:00:00Z,28.8667,-90.4833,100.0,11111222 
WAVCIS,ioos:station:WAVCIS:CSI06:1,2013-02-05T10:00:00Z,28.8667,-90.4833,100.0,11111222 
WAVCIS,ioos:station:WAVCIS:CSI06:1,2013-02-05T11:00:00Z,28.8667,-90.4833,100.0,11111222 
WAVCIS,ioos:station:WAVCIS:CSI06:1,2013-02-05T12:00:00Z,28.8667,-90.4833,100.0,11111222 
WAVCIS,ioos:station:WAVCIS:CSI06:1,2013-02-05T13:00:00Z,28.8667,-90.4833,100.0,11111222 
WAVCIS,ioos:station:WAVCIS:CSI06:1,2013-02-05T14:00:00Z,28.8667,-90.4833,100.0,11111222 
WAVCIS,ioos:station:WAVCIS:CSI06:1,2013-02-05T15:00:00Z,28.8667,-90.4833,100.0,11111222 
WAVCIS,ioos:station:WAVCIS:CSI06:1,2013-02-05T16:00:00Z,28.8667,-90.4833,100.0,11111222 
WAVCIS,ioos:station:WAVCIS:CSI06:1,2013-02-05T17:00:00Z,28.8667,-90.4833,100.0,11111222 
WAVCIS,ioos:station:WAVCIS:CSI06:1,2013-02-05T18:00:00Z,28.8667,-90.4833,100.0,11111222 
WAVCIS,ioos:station:WAVCIS:CSI06:1,2013-02-05T19:00:00Z,28.8667,-90.4833,100.0,11111222 
WAVCIS,ioos:station:WAVCIS:CSI06:1,2013-02-05T20:00:00Z,28.8667,-90.4833,100.0,11111222 
WAVCIS,ioos:station:WAVCIS:CSI06:1,2013-02-05T21:00:00Z,28.8667,-90.4833,100.0,11111222 
WAVCIS,ioos:station:WAVCIS:CSI06:1,2013-02-05T22:00:00Z,28.8667,-90.4833,100.0,11111222 
WAVCIS,ioos:station:WAVCIS:CSI06:1,2013-02-05T23:00:00Z,28.8667,-90.4833,100.0,11111222 
WAVCIS,ioos:station:WAVCIS:CSI06:1,2013-02-06T00:00:00Z,28.8667,-90.4833,100.0,11111222 
WAVCIS,ioos:station:WAVCIS:CSI06:1,2013-02-06T01:00:00Z,28.8667,-90.4833,100.0,11111222 
WAVCIS,ioos:station:WAVCIS:CSI06:1,2013-02-06T02:00:00Z,28.8667,-90.4833,100.0,11111222 
WAVCIS,ioos:station:WAVCIS:CSI06:1,2013-02-06T03:00:00Z,28.8667,-90.4833,100.0,11111222 
WAVCIS,ioos:station:WAVCIS:CSI06:1,2013-02-06T04:00:00Z,28.8667,-90.4833,100.0,11111222 
WAVCIS,ioos:station:WAVCIS:CSI06:1,2013-02-06T05:00:00Z,28.8667,-90.4833,100.0,11111222 
WAVCIS,ioos:station:WAVCIS:CSI06:1,2013-02-06T06:00:00Z,28.8667,-90.4833,100.0,11111222 
WAVCIS,ioos:station:WAVCIS:CSI06:1,2013-02-06T07:00:00Z,28.8667,-90.4833,100.0,11111222 
WAVCIS,ioos:station:WAVCIS:CSI06:1,2013-02-06T08:00:00Z,28.8667,-90.4833,100.0,11111222 
WAVCIS,ioos:station:WAVCIS:CSI06:1,2013-02-06T09:00:00Z,28.8667,-90.4833,100.0,11111222 
WAVCIS,ioos:station:WAVCIS:CSI06:1,2013-02-06T10:00:00Z,28.8667,-90.4833,100.0,11111222 
WAVCIS,ioos:station:WAVCIS:CSI06:1,2013-02-06T11:00:00Z,28.8667,-90.4833,100.0,11111222 
WAVCIS,ioos:station:WAVCIS:CSI06:1,2013-02-06T12:00:00Z,28.8667,-90.4833,100.0,11111222 
WAVCIS,ioos:station:WAVCIS:CSI06:1,2013-02-06T13:00:00Z,28.8667,-90.4833,100.0,11111222 
WAVCIS,ioos:station:WAVCIS:CSI06:1,2013-02-06T14:00:00Z,28.8667,-90.4833,100.0,11111222 
WAVCIS,ioos:station:WAVCIS:CSI06:1,2013-02-06T15:00:00Z,28.8667,-90.4833,100.0,11111222 
WAVCIS,ioos:station:WAVCIS:CSI06:1,2013-02-06T16:00:00Z,28.8667,-90.4833,100.0,11111222 
WAVCIS,ioos:station:WAVCIS:CSI06:1,2013-02-06T17:00:00Z,28.8667,-90.4833,100.0,11111222 
WAVCIS,ioos:station:WAVCIS:CSI06:1,2013-02-06T18:00:00Z,28.8667,-90.4833,100.0,11111222 
WAVCIS,ioos:station:WAVCIS:CSI06:1,2013-02-06T19:00:00Z,28.8667,-90.4833,100.0,11111222 
WAVCIS,ioos:station:WAVCIS:CSI06:1,2013-02-06T20:00:00Z,28.8667,-90.4833,100.0,11111222 
WAVCIS,ioos:station:WAVCIS:CSI06:1,2013-02-06T21:00:00Z,28.8667,-90.4833,100.0,11111222 
WAVCIS,ioos:station:WAVCIS:CSI06:1,2013-02-06T22:00:00Z,28.8667,-90.4833,100.0,11111222 
WAVCIS,ioos:station:WAVCIS:CSI06:1,2013-02-06T23:00:00Z,28.8667,-90.4833,100.0,11111222 
WAVCIS,ioos:station:WAVCIS:CSI06:1,2013-02-07T00:00:00Z,28.8667,-90.4833,100.0,11111222 
WAVCIS,ioos:station:WAVCIS:CSI06:1,2013-02-07T01:00:00Z,28.8667,-90.4833,100.0,11111222 
WAVCIS,ioos:station:WAVCIS:CSI06:1,2013-02-07T02:00:00Z,28.8667,-90.4833,100.0,11111222 
WAVCIS,ioos:station:WAVCIS:CSI06:1,2013-02-07T03:00:00Z,28.8667,-90.4833,100.0,11111222 
WAVCIS,ioos:station:WAVCIS:CSI06:1,2013-02-07T04:00:00Z,28.8667,-90.4833,100.0,11111222 
WAVCIS,ioos:station:WAVCIS:CSI06:1,2013-02-07T05:00:00Z,28.8667,-90.4833,100.0,11111222 
WAVCIS,ioos:station:WAVCIS:CSI06:1,2013-02-07T06:00:00Z,28.8667,-90.4833,100.0,11111222 
WAVCIS,ioos:station:WAVCIS:CSI06:1,2013-02-07T07:00:00Z,28.8667,-90.4833,100.0,11111222 
WAVCIS,ioos:station:WAVCIS:CSI06:1,2013-02-07T08:00:00Z,28.8667,-90.4833,100.0,11111222 
WAVCIS,ioos:station:WAVCIS:CSI06:1,2013-02-07T09:00:00Z,28.8667,-90.4833,100.0,11111222 
WAVCIS,ioos:station:WAVCIS:CSI06:1,2013-02-07T10:00:00Z,28.8667,-90.4833,100.0,11111222 
WAVCIS,ioos:station:WAVCIS:CSI06:1,2013-02-07T11:00:00Z,28.8667,-90.4833,100.0,11111222 
WAVCIS,ioos:station:WAVCIS:CSI06:1,2013-02-07T12:00:00Z,28.8667,-90.4833,100.0,11111222 
WAVCIS,ioos:station:WAVCIS:CSI06:1,2013-02-07T13:00:00Z,28.8667,-90.4833,100.0,11111222 
WAVCIS,ioos:station:WAVCIS:CSI06:1,2013-02-07T14:00:00Z,28.8667,-90.4833,100.0,11111222 
WAVCIS,ioos:station:WAVCIS:CSI06:1,2013-02-07T15:00:00Z,28.8667,-90.4833,100.0,11111222 
WAVCIS,ioos:station:WAVCIS:CSI06:1,2013-02-07T16:00:00Z,28.8667,-90.4833,100.0,11111222 
WAVCIS,ioos:station:WAVCIS:CSI06:1,2013-02-07T17:00:00Z,28.8667,-90.4833,100.0,11111222 
WAVCIS,ioos:station:WAVCIS:CSI06:1,2013-02-07T18:00:00Z,28.8667,-90.4833,100.0,11111222 
WAVCIS,ioos:station:WAVCIS:CSI06:1,2013-02-07T19:00:00Z,28.8667,-90.4833,100.0,11111222 
WAVCIS,ioos:station:WAVCIS:CSI06:1,2013-02-07T20:00:00Z,28.8667,-90.4833,100.0,11111222 
WAVCIS,ioos:station:WAVCIS:CSI06:1,2013-02-07T21:00:00Z,28.8667,-90.4833,100.0,11111222 
WAVCIS,ioos:station:WAVCIS:CSI06:1,2013-02-07T22:00:00Z,28.8667,-90.4833,100.0,11111222 
WAVCIS,ioos:station:WAVCIS:CSI06:1,2013-02-07T23:00:00Z,28.8667,-90.4833,100.0,11111222 
WAVCIS,ioos:station:WAVCIS:CSI06:1,2013-02-08T00:00:00Z,28.8667,-90.4833,100.0,11111222 
WAVCIS,ioos:station:WAVCIS:CSI06:1,2013-02-08T01:00:00Z,28.8667,-90.4833,100.0,11111222 
WAVCIS,ioos:station:WAVCIS:CSI06:1,2013-02-08T02:00:00Z,28.8667,-90.4833,100.0,11111222 
WAVCIS,ioos:station:WAVCIS:CSI06:1,2013-02-08T03:00:00Z,28.8667,-90.4833,100.0,11111222 
WAVCIS,ioos:station:WAVCIS:CSI06:1,2013-02-08T04:00:00Z,28.8667,-90.4833,100.0,11111222 
WAVCIS,ioos:station:WAVCIS:CSI06:1,2013-02-08T05:00:00Z,28.8667,-90.4833,100.0,11111222 
WAVCIS,ioos:station:WAVCIS:CSI06:1,2013-02-08T06:00:00Z,28.8667,-90.4833,100.0,11111222 
WAVCIS,ioos:station:WAVCIS:CSI06:1,2013-02-08T07:00:00Z,28.8667,-90.4833,100.0,11111222 
WAVCIS,ioos:station:WAVCIS:CSI06:1,2013-02-08T08:00:00Z,28.8667,-90.4833,100.0,11111222 
WAVCIS,ioos:station:WAVCIS:CSI06:1,2013-02-08T09:00:00Z,28.8667,-90.4833,100.0,11111222 
WAVCIS,ioos:station:WAVCIS:CSI06:1,2013-02-08T10:00:00Z,28.8667,-90.4833,100.0,11111222 
WAVCIS,ioos:station:WAVCIS:CSI06:1,2013-02-08T11:00:00Z,28.8667,-90.4833,100.0,11111222 
WAVCIS,ioos:station:WAVCIS:CSI06:1,2013-02-08T12:00:00Z,28.8667,-90.4833,100.0,11111222 
WAVCIS,ioos:station:WAVCIS:CSI06:1,2013-02-08T13:00:00Z,28.8667,-90.4833,100.0,11111222 
WAVCIS,ioos:station:WAVCIS:CSI06:1,2013-02-08T14:00:00Z,28.8667,-90.4833,100.0,11111222 
WAVCIS,ioos:station:WAVCIS:CSI06:1,2013-02-08T15:00:00Z,28.8667,-90.4833,100.0,11111222 
WAVCIS,ioos:station:WAVCIS:CSI06:1,2013-02-08T16:00:00Z,28.8667,-90.4833,100.0,11111222 
WAVCIS,ioos:station:WAVCIS:CSI06:1,2013-02-08T17:00:00Z,28.8667,-90.4833,100.0,11111222 
WAVCIS,ioos:station:WAVCIS:CSI06:1,2013-02-08T18:00:00Z,28.8667,-90.4833,100.0,11111222 
WAVCIS,ioos:station:WAVCIS:CSI06:1,2013-02-08T19:00:00Z,28.8667,-90.4833,100.0,11111222 
WAVCIS,ioos:station:WAVCIS:CSI06:1,2013-02-08T20:00:00Z,28.8667,-90.4833,100.0,11111222 
WAVCIS,ioos:station:WAVCIS:CSI06:1,2013-02-08T21:00:00Z,28.8667,-90.4833,100.0,11111222 
WAVCIS,ioos:station:WAVCIS:CSI06:1,2013-02-08T22:00:00Z,28.8667,-90.4833,100.0,11111222 
WAVCIS,ioos:station:WAVCIS:CSI06:1,2013-02-08T23:00:00Z,28.8667,-90.4833,100.0,11111222 
WAVCIS,ioos:station:WAVCIS:CSI06:1,2013-02-09T00:00:00Z,28.8667,-90.4833,100.0,11111222 
WAVCIS,ioos:station:WAVCIS:CSI06:1,2013-02-09T01:00:00Z,28.8667,-90.4833,100.0,11111222 
WAVCIS,ioos:station:WAVCIS:CSI06:1,2013-02-09T02:00:00Z,28.8667,-90.4833,100.0,11111222 
WAVCIS,ioos:station:WAVCIS:CSI06:1,2013-02-09T03:00:00Z,28.8667,-90.4833,100.0,11111222 
WAVCIS,ioos:station:WAVCIS:CSI06:1,2013-02-09T04:00:00Z,28.8667,-90.4833,100.0,11111222 
WAVCIS,ioos:station:WAVCIS:CSI06:1,2013-02-09T05:00:00Z,28.8667,-90.4833,100.0,11111222 
WAVCIS,ioos:station:WAVCIS:CSI06:1,2013-02-09T06:00:00Z,28.8667,-90.4833,100.0,11111222 
WAVCIS,ioos:station:WAVCIS:CSI06:1,2013-02-09T07:00:00Z,28.8667,-90.4833,100.0,11111222 
WAVCIS,ioos:station:WAVCIS:CSI06:1,2013-02-09T08:00:00Z,28.8667,-90.4833,100.0,11111222 
WAVCIS,ioos:station:WAVCIS:CSI06:1,2013-02-09T09:00:00Z,28.8667,-90.4833,100.0,11111222 
WAVCIS,ioos:station:WAVCIS:CSI06:1,2013-02-09T10:00:00Z,28.8667,-90.4833,100.0,11111222 
WAVCIS,ioos:station:WAVCIS:CSI06:1,2013-02-09T11:00:00Z,28.8667,-90.4833,100.0,11111222 
WAVCIS,ioos:station:WAVCIS:CSI06:1,2013-02-09T12:00:00Z,28.8667,-90.4833,100.0,11111222 
WAVCIS,ioos:station:WAVCIS:CSI06:1,2013-02-09T13:00:00Z,28.8667,-90.4833,100.0,11111222 
WAVCIS,ioos:station:WAVCIS:CSI06:1,2013-02-09T14:00:00Z,28.8667,-90.4833,100.0,11111222 
WAVCIS,ioos:station:WAVCIS:CSI06:1,2013-02-09T15:00:00Z,28.8667,-90.4833,100.0,11111222 
WAVCIS,ioos:station:WAVCIS:CSI06:1,2013-02-09T16:00:00Z,28.8667,-90.4833,100.0,11111222 
WAVCIS,ioos:station:WAVCIS:CSI06:1,2013-02-09T17:00:00Z,28.8667,-90.4833,100.0,11111222 
WAVCIS,ioos:station:WAVCIS:CSI06:1,2013-02-09T18:00:00Z,28.8667,-90.4833,100.0,11111222 
WAVCIS,ioos:station:WAVCIS:CSI06:1,2013-02-09T19:00:00Z,28.8667,-90.4833,100.0,11111222 
WAVCIS,ioos:station:WAVCIS:CSI06:1,2013-02-09T20:00:00Z,28.8667,-90.4833,100.0,11111222 
WAVCIS,ioos:station:WAVCIS:CSI06:1,2013-02-09T21:00:00Z,28.8667,-90.4833,100.0,11111222 
WAVCIS,ioos:station:WAVCIS:CSI06:1,2013-02-09T22:00:00Z,28.8667,-90.4833,100.0,11111222 
WAVCIS,ioos:station:WAVCIS:CSI06:1,2013-02-09T23:00:00Z,28.8667,-90.4833,100.0,11111222 
WAVCIS,ioos:station:WAVCIS:CSI06:1,2013-02-10T00:00:00Z,28.8667,-90.4833,100.0,11111222 
WAVCIS,ioos:station:WAVCIS:CSI06:1,2013-02-10T01:00:00Z,28.8667,-90.4833,100.0,11111222 
WAVCIS,ioos:station:WAVCIS:CSI06:1,2013-02-10T02:00:00Z,28.8667,-90.4833,100.0,11111222 
WAVCIS,ioos:station:WAVCIS:CSI06:1,2013-02-10T03:00:00Z,28.8667,-90.4833,100.0,11111222 
WAVCIS,ioos:station:WAVCIS:CSI06:1,2013-02-10T04:00:00Z,28.8667,-90.4833,100.0,11111222 
WAVCIS,ioos:station:WAVCIS:CSI06:1,2013-02-10T05:00:00Z,28.8667,-90.4833,100.0,11111222 
WAVCIS,ioos:station:WAVCIS:CSI06:1,2013-02-10T06:00:00Z,28.8667,-90.4833,100.0,11111222 
WAVCIS,ioos:station:WAVCIS:CSI06:1,2013-02-10T07:00:00Z,28.8667,-90.4833,100.0,11111222 
WAVCIS,ioos:station:WAVCIS:CSI06:1,2013-02-10T08:00:00Z,28.8667,-90.4833,100.0,11111222 
WAVCIS,ioos:station:WAVCIS:CSI06:1,2013-02-10T09:00:00Z,28.8667,-90.4833,100.0,11111222 
WAVCIS,ioos:station:WAVCIS:CSI06:1,2013-02-10T10:00:00Z,28.8667,-90.4833,100.0,11111222 
WAVCIS,ioos:station:WAVCIS:CSI06:1,2013-02-10T11:00:00Z,28.8667,-90.4833,100.0,11111222 
WAVCIS,ioos:station:WAVCIS:CSI06:1,2013-02-10T12:00:00Z,28.8667,-90.4833,100.0,11111222 
WAVCIS,ioos:station:WAVCIS:CSI06:1,2013-02-10T13:00:00Z,28.8667,-90.4833,100.0,11111222 
WAVCIS,ioos:station:WAVCIS:CSI06:1,2013-02-10T14:00:00Z,28.8667,-90.4833,100.0,11111222 
WAVCIS,ioos:station:WAVCIS:CSI06:1,2013-02-10T15:00:00Z,28.8667,-90.4833,100.0,11111222 
WAVCIS,ioos:station:WAVCIS:CSI06:1,2013-02-10T16:00:00Z,28.8667,-90.4833,100.0,11111222 
WAVCIS,ioos:station:WAVCIS:CSI06:1,2013-02-10T17:00:00Z,28.8667,-90.4833,100.0,11111222 
WAVCIS,ioos:station:WAVCIS:CSI06:1,2013-02-10T18:00:00Z,28.8667,-90.4833,100.0,11111222 
WAVCIS,ioos:station:WAVCIS:CSI06:1,2013-02-10T19:00:00Z,28.8667,-90.4833,100.0,11111222 
WAVCIS,ioos:station:WAVCIS:CSI06:1,2013-02-10T20:00:00Z,28.8667,-90.4833,100.0,11111222 
WAVCIS,ioos:station:WAVCIS:CSI06:1,2013-02-10T21:00:00Z,28.8667,-90.4833,100.0,11111222 
WAVCIS,ioos:station:WAVCIS:CSI06:1,2013-02-10T22:00:00Z,28.8667,-90.4833,100.0,11111222 
WAVCIS,ioos:station:WAVCIS:CSI06:1,2013-02-10T23:00:00Z,28.8667,-90.4833,100.0,11111222 
WAVCIS,ioos:station:WAVCIS:CSI06:1,2013-02-11T00:00:00Z,28.8667,-90.4833,100.0,11111222 
WAVCIS,ioos:station:WAVCIS:CSI06:1,2013-02-11T01:00:00Z,28.8667,-90.4833,100.0,11111222 
WAVCIS,ioos:station:WAVCIS:CSI06:1,2013-02-11T02:00:00Z,28.8667,-90.4833,100.0,11111222 
WAVCIS,ioos:station:WAVCIS:CSI06:1,2013-02-11T03:00:00Z,28.8667,-90.4833,100.0,11111222 
WAVCIS,ioos:station:WAVCIS:CSI06:1,2013-02-11T04:00:00Z,28.8667,-90.4833,100.0,11111222 
WAVCIS,ioos:station:WAVCIS:CSI06:1,2013-02-11T05:00:00Z,28.8667,-90.4833,100.0,11111222 
WAVCIS,ioos:station:WAVCIS:CSI06:1,2013-02-11T06:00:00Z,28.8667,-90.4833,100.0,11111222 
WAVCIS,ioos:station:WAVCIS:CSI06:1,2013-02-11T07:00:00Z,28.8667,-90.4833,100.0,11111222 
WAVCIS,ioos:station:WAVCIS:CSI06:1,2013-02-11T08:00:00Z,28.8667,-90.4833,100.0,11111222 
WAVCIS,ioos:station:WAVCIS:CSI06:1,2013-02-11T09:00:00Z,28.8667,-90.4833,100.0,11111222 
WAVCIS,ioos:station:WAVCIS:CSI06:1,2013-02-11T10:00:00Z,28.8667,-90.4833,100.0,11111222 
WAVCIS,ioos:station:WAVCIS:CSI06:1,2013-02-11T11:00:00Z,28.8667,-90.4833,100.0,11111222 
WAVCIS,ioos:station:WAVCIS:CSI06:1,2013-02-11T12:00:00Z,28.8667,-90.4833,100.0,11111222 
WAVCIS,ioos:station:WAVCIS:CSI06:1,2013-02-11T13:00:00Z,28.8667,-90.4833,100.0,11111222 
WAVCIS,ioos:station:WAVCIS:CSI06:1,2013-02-11T14:00:00Z,28.8667,-90.4833,100.0,11111222 
WAVCIS,ioos:station:WAVCIS:CSI06:1,2013-02-11T15:00:00Z,28.8667,-90.4833,100.0,11111222 
WAVCIS,ioos:station:WAVCIS:CSI06:1,2013-02-11T16:00:00Z,28.8667,-90.4833,100.0,11111222 
WAVCIS,ioos:station:WAVCIS:CSI06:1,2013-02-11T17:00:00Z,28.8667,-90.4833,100.0,11111222 
WAVCIS,ioos:station:WAVCIS:CSI06:1,2013-02-11T18:00:00Z,28.8667,-90.4833,100.0,11111222 
WAVCIS,ioos:station:WAVCIS:CSI06:1,2013-02-11T19:00:00Z,28.8667,-90.4833,100.0,11111222 
WAVCIS,ioos:station:WAVCIS:CSI06:1,2013-02-11T20:00:00Z,28.8667,-90.4833,100.0,11111222 
WAVCIS,ioos:station:WAVCIS:CSI06:1,2013-02-11T21:00:00Z,28.8667,-90.4833,100.0,11111222 
WAVCIS,ioos:station:WAVCIS:CSI06:1,2013-02-11T22:00:00Z,28.8667,-90.4833,100.0,11111222 
WAVCIS,ioos:station:WAVCIS:CSI06:1,2013-02-11T23:00:00Z,28.8667,-90.4833,100.0,11111222 
WAVCIS,ioos:station:WAVCIS:CSI06:1,2013-02-12T00:00:00Z,28.8667,-90.4833,100.0,11111222 
WAVCIS,ioos:station:WAVCIS:CSI06:1,2013-02-12T01:00:00Z,28.8667,-90.4833,100.0,11111222 
WAVCIS,ioos:station:WAVCIS:CSI06:1,2013-02-12T02:00:00Z,28.8667,-90.4833,100.0,11111222 
WAVCIS,ioos:station:WAVCIS:CSI06:1,2013-02-12T03:00:00Z,28.8667,-90.4833,100.0,11111222 
WAVCIS,ioos:station:WAVCIS:CSI06:1,2013-02-12T04:00:00Z,28.8667,-90.4833,100.0,11111222 